Philip, SD

4:47 PM MST on February 27, 2017 (GMT -0700)
Philip

Weather History for KPHP - February, 2012

Change the Weather History Date:

Monday, February 6, 2012

  Actual Average Record
Temperature  
Mean Temperature 28 °F 24 °F  
Max Temperature 42 °F 37 °F 71 °F (2015)
Min Temperature 14 °F 11 °F -19 °F (1988)
Degree Days  
Heating Degree Days 37 41  
Month to date heating degree days 206 248  
Since 1 July heating degree days 3821 4513  
Cooling Degree Days 0 0  
Month to date cooling degree days 0 0  
Year to date cooling degree days 0 0  
Moisture  
Dew Point 20 °F    
Average Humidity 69    
Maximum Humidity 88    
Minimum Humidity 50    
Precipitation  
Precipitation T in 0.02 in 0.08 in (2007)
Month to date precipitation T 0.07  
Year to date precipitation 0.21 0.37  
Sea Level Pressure  
Sea Level Pressure 30.31 in    
Wind  
Wind Speed 12 mph (NNW)    
Max Wind Speed 25 mph    
Max Gust Speed 31 mph    
Visibility 10 miles    
Events      
T = Trace of Precipitation, MM = Missing Value Source: NWS Daily Summary

Daily Weather History Graph

Daily Weather History Graph

Search for Another Location

Airport or City:

Trip Planner

Search our weather history database for the weather conditions in past years. The results will help you decide how hot, cold, wet, or windy it might be!

Date:

Astronomy

Feb. 06, 2012 Rise Set
Actual Time 6:58 AM MST 5:02 PM MST
Civil Twilight 6:28 AM MST 5:33 PM MST
Nautical Twilight 5:53 AM MST 6:07 PM MST
Astronomical Twilight 5:20 AM MST 6:41 PM MST
Moon 4:08 PM MST (2/6) 5:52 AM MST (2/6)
Length of Visible Light 11h 05m
Length of Day
10h 04m
Waxing Gibbous, 98% of the Moon is Illuminated
Feb 6
Waxing Gibbous
Feb 7
Full
Feb 14
Last Quarter
Feb 21
New
Feb 29
First Quarter

Hourly Weather History & Observations

Time (MST) Temp. Windchill Dew Point Humidity Pressure Visibility Wind Dir Wind Speed Gust Speed Precip Events Conditions
12:55 AM 15.1 °F 6.4 °F 10.9 °F 84% 30.21 in 10.0 mi West 5.8 mph - N/A   Clear
1:55 AM 14.0 °F 5.1 °F 10.9 °F 88% 30.20 in 10.0 mi West 5.8 mph - N/A   Clear
2:55 AM 19.9 °F 13.4 °F 15.1 °F 81% 30.17 in 10.0 mi West 4.6 mph - N/A   Clear
3:55 AM 17.1 °F - 14.0 °F 88% 30.17 in 10.0 mi Calm Calm - N/A   Clear
4:55 AM 15.1 °F 5.2 °F 12.0 °F 88% 30.17 in 10.0 mi West 6.9 mph - N/A   Clear
5:55 AM 17.1 °F 6.6 °F 12.9 °F 84% 30.18 in 10.0 mi West 8.1 mph - N/A   Clear
6:55 AM 17.1 °F 8.7 °F 12.9 °F 84% 30.19 in 10.0 mi West 5.8 mph - N/A   Clear
7:55 AM 19.9 °F 9.3 °F 15.1 °F 81% 30.23 in 10.0 mi West 9.2 mph - N/A   Clear
8:55 AM 28.0 °F 20.8 °F 21.0 °F 75% 30.23 in 10.0 mi West 6.9 mph - N/A   Clear
9:55 AM 37.0 °F 30.4 °F 23.0 °F 57% 30.22 in 10.0 mi NNW 9.2 mph - N/A   Clear
10:55 AM 39.9 °F 32.9 °F 23.0 °F 51% 30.23 in 10.0 mi North 11.5 mph - N/A   Clear
11:55 AM 39.9 °F 31.4 °F 24.1 °F 53% 30.22 in 10.0 mi North 16.1 mph - N/A   Clear
12:55 PM 42.1 °F 34.5 °F 26.1 °F 53% 30.23 in 10.0 mi North 15.0 mph 25.3 mph N/A   Partly Cloudy
1:31 PM 37.4 °F 26.4 °F 24.8 °F 60% 30.18 in 10.0 mi NNW 23.0 mph 31.1 mph N/A   Mostly Cloudy
1:55 PM 35.1 °F 23.0 °F 23.0 °F 61% 30.26 in 10.0 mi NNW 24.2 mph 29.9 mph N/A   Overcast
2:55 PM 30.9 °F 18.7 °F 23.0 °F 72% 30.31 in 10.0 mi NNW 19.6 mph 27.6 mph N/A   Overcast
3:55 PM 30.9 °F 20.2 °F 23.0 °F 72% 30.33 in 10.0 mi North 15.0 mph 20.7 mph N/A   Overcast
4:12 PM 30.2 °F 19.3 °F 23.0 °F 75% 30.26 in 10.0 mi NNW 15.0 mph 23.0 mph N/A   Overcast
4:22 PM 30.2 °F 18.9 °F 23.0 °F 75% 30.26 in 10.0 mi NNW 16.1 mph - N/A   Overcast
4:55 PM 28.9 °F 17.7 °F 21.9 °F 75% 30.38 in 10.0 mi North 15.0 mph 27.6 mph N/A   Overcast
5:51 PM 28.4 °F 16.6 °F 21.2 °F 74% 30.32 in 10.0 mi North 16.1 mph - N/A   Overcast
5:55 PM 28.0 °F 16.1 °F 21.9 °F 78% 30.41 in 10.0 mi North 16.1 mph - N/A   Overcast
6:55 PM 28.0 °F 17.0 °F 21.9 °F 78% 30.44 in 10.0 mi NNE 13.8 mph 19.6 mph N/A   Overcast
7:55 PM 28.0 °F 18.1 °F 24.1 °F 85% 30.46 in 10.0 mi NNE 11.5 mph 20.7 mph N/A   Overcast
8:19 PM 28.4 °F 19.1 °F 24.8 °F 86% 30.38 in 10.0 mi North 10.4 mph 19.6 mph N/A   Overcast
8:55 PM 28.0 °F 16.1 °F 24.1 °F 85% 30.47 in 10.0 mi North 16.1 mph 23.0 mph N/A   Overcast
9:55 PM 26.1 °F 14.5 °F 21.9 °F 84% 30.49 in 10.0 mi NNE 13.8 mph - 0.00 in   Overcast
10:32 PM 26.6 °F 14.3 °F 21.2 °F 80% 30.43 in 10.0 mi NNE 16.1 mph - N/A   Overcast
10:55 PM 26.1 °F 14.0 °F 21.0 °F 81% 30.50 in 10.0 mi NNE 15.0 mph 21.9 mph N/A   Overcast
11:53 PM 24.8 °F 11.9 °F 19.4 °F 80% 30.45 in 10.0 mi NNE 16.1 mph - N/A   Overcast
11:55 PM 25.0 °F 10.9 °F 19.9 °F 81% 30.51 in 10.0 mi NNE 19.6 mph 23.0 mph N/A   Overcast